Powrót do katalogu

SL-14 DEB

AktywnyPO
NORAD 45339·DEBRIS·🇷🇺 Russia

Wystrzelony Aug 15, 1991 z Plesetsk Cosmodrome

Loading…

Następne Przeloty (najbliższe 24 godziny)

TLE

ŚwieżeSource: Space-Track

Epoka: Sep 13, 2026, 03:24 UTC

1 45339U 91056CD  26256.14176874  .00005155  00000-0  48560-2 0  9995
2 45339  82.5030 306.8238 0104081 138.4140 222.4993 13.78760228323226

Śledź SL-14 DEB w czasie rzeczywistym z AllMySat

Download on the App Store